K5TCS Weather Reports


Display with metric or nautical units.
time (UTC)temp
F
wind
direction
speed
MPH
gust
MPH
rain 1hr
in
rain 24hr
in
rain mn
in
humidity
%
barometer
mb
20260505064016 58 270 7.0 16.0 0.00 0.00 0.00 33 1017.9
20260505063016 58 248 6.0 13.0 0.00 0.00 0.00 34 1018.0
20260505062016 58 248 5.0 13.0 0.00 0.00 0.00 34 1017.8
20260505061041 59 225 8.0 20.0 0.00 0.00 0.00 33 1018.4
20260505060036 59 225 6.0 17.0 0.00 0.00 0.00 33 1018.8
20260505055016 59 225 7.0 18.0 0.00 0.00 0.00 33 1018.5
20260505054016 60 225 7.0 20.0 0.00 0.00 0.00 33 1018.6
20260505053016 60 225 8.0 23.0 0.00 0.00 0.00 33 1018.7
20260505052015 60 248 7.0 16.0 0.00 0.00 0.00 33 1019.1
20260505051016 60 225 6.0 17.0 0.00 0.00 0.00 34 1018.5
20260505041037 61 203 6.0 18.0 0.00 0.00 0.00 33 1019.4
20260505040017 61 225 7.0 18.0 0.00 0.00 0.00 33 1019.4
20260505035017 61 203 7.0 14.0 0.00 0.00 0.00 33 1019.2
20260505034018 61 225 8.0 18.0 0.00 0.00 0.00 33 1018.6
20260505033017 61 203 8.0 25.0 0.00 0.00 0.00 33 1018.6
20260505032017 61 225 7.0 20.0 0.00 0.00 0.00 33 1018.7
20260505031017 61 225 7.0 17.0 0.00 0.00 0.00 33 1018.6
20260505030017 61 225 7.0 23.0 0.00 0.00 0.00 33 1018.5
20260505025017 61 225 7.0 18.0 0.00 0.00 0.00 33 1018.4
20260505024017 61 225 6.0 14.0 0.00 0.00 0.00 33 1018.1
20260505023017 61 225 7.0 19.0 0.00 0.00 0.00 33 1017.9
20260505022017 61 225 8.0 20.0 0.00 0.00 0.00 33 1017.9
20260505021017 62 225 7.0 17.0 0.00 0.00 0.00 33 1017.1
20260505020017 62 225 6.0 19.0 0.00 0.00 0.00 32 1017.0
20260505015018 62 225 4.0 11.0 0.00 0.00 0.00 32 1017.6
20260505014017 62 203 5.0 21.0 0.00 0.00 0.00 30 1016.6
20260505013017 62 203 5.0 15.0 0.00 0.00 0.00 30 1017.0
20260505012017 62 203 4.0 18.0 0.00 0.00 0.00 29 1016.9
20260505011017 63 225 5.0 18.0 0.00 0.00 0.00 29 1016.8
20260505010017 63 225 5.0 15.0 0.00 0.00 0.00 29 1017.0
20260505005017 63 203 6.0 23.0 0.00 0.00 0.00 28 1016.9
20260505004017 64 203 4.0 17.0 0.00 0.00 0.00 29 1017.2
20260505003017 64 203 3.0 12.0 0.00 0.00 0.00 31 1017.7
20260505002017 65 203 3.0 14.0 0.00 0.00 0.00 30 1017.7
20260505001037 66 203 3.0 11.0 0.00 0.00 0.00 30 1017.4
20260505000017 66 225 5.0 14.0 0.00 0.00 0.00 29 1017.8
20260504235017 67 225 6.0 15.0 0.00 0.01 0.00 29 1018.4
20260504234017 68 203 5.0 15.0 0.00 0.01 0.00 29 1018.7
20260504233057 67 203 8.0 20.0 0.00 0.01 0.00 29 1018.3
20260504232017 67 225 8.0 17.0 0.00 0.01 0.00 29 1018.4
20260504231017 68 203 8.0 17.0 0.00 0.01 0.00 30 1018.6
20260504230018 67 248 9.0 20.0 0.00 0.01 0.00 31 1017.9
20260504225017 68 225 9.0 21.0 0.00 0.01 0.00 30 1018.3
20260504224017 70 225 7.0 19.0 0.00 0.01 0.00 30 1018.3
20260504223017 69 270 6.0 20.0 0.00 0.01 0.00 31 1018.6
20260504222016 68 248 8.0 19.0 0.00 0.01 0.00 32 1018.4
20260504221016 67 248 10.0 20.0 0.00 0.01 0.00 32 1018.7
20260504220017 65 270 9.0 19.0 0.00 0.01 0.00 33 1018.1
20260504215016 65 270 6.0 15.0 0.00 0.01 0.00 33 1018.4
20260504214016 64 270 7.0 16.0 0.00 0.01 0.00 32 1017.9
20260504213017 65 225 5.0 18.0 0.00 0.01 0.00 30 1018.1
20260504212017 65 248 7.0 17.0 0.00 0.01 0.00 30 1018.4
20260504211016 65 270 8.0 18.0 0.00 0.01 0.00 26 1018.3
20260504210016 66 270 8.0 17.0 0.00 0.02 0.00 26 1018.2
20260504205016 67 270 8.0 16.0 0.00 0.02 0.00 25 1018.6
20260504204016 67 270 8.0 22.0 0.00 0.02 0.00 25 1018.6
20260504203016 68 270 8.0 17.0 0.00 0.02 0.00 21 1018.4
20260504202016 69 270 9.0 19.0 0.00 0.02 0.00 21 1019.0
20260504201016 69 270 10.0 18.0 0.00 0.02 0.00 21 1018.4
20260504200016 69 270 7.0 16.0 0.00 0.03 0.00 23 1018.8
20260504195016 69 270 6.0 16.0 0.00 0.03 0.00 25 1018.9
20260504194016 69 270 4.0 12.0 0.00 0.03 0.00 25 1019.2
20260504193016 68 270 6.0 16.0 0.00 0.03 0.00 25 1019.3
20260504192016 68 270 5.0 15.0 0.00 0.03 0.00 26 1019.4
20260504191016 68 293 4.0 13.0 0.00 0.03 0.00 28 1020.2
20260504190016 67 270 5.0 13.0 0.00 0.03 0.00 26 1019.8
20260504185016 67 270 5.0 15.0 0.00 0.03 0.00 28 1019.9
20260504184016 66 270 5.0 16.0 0.00 0.03 0.00 27 1020.4
20260504183036 66 270 6.0 14.0 0.00 0.04 0.00 27 1020.8
20260504182056 66 293 7.0 14.0 0.00 0.04 0.00 27 1020.7
20260504181036 65 293 7.0 15.0 0.00 0.04 0.00 26 1019.9
20260504180016 66 270 7.0 16.0 0.00 0.04 0.00 27 1020.0
20260504175036 66 293 5.0 13.0 0.00 0.04 0.00 28 1019.9
20260504174016 66 270 5.0 16.0 0.00 0.05 0.00 28 1020.2
20260504173016 65 270 4.0 11.0 0.00 0.05 0.00 29 1020.2
20260504172016 64 293 4.0 12.0 0.00 0.05 0.00 28 1019.6
20260504171016 65 338 2.0 9.0 0.00 0.05 0.00 31 1019.8
20260504151016 61 270 5.0 17.0 0.00 0.06 0.00 35 1020.3
20260504141018 59 203 2.0 10.0 0.00 0.07 0.00 40 1021.9
20260504081017 45 0.0 2.0 0.00 0.08 0.00 39 1022.1